#timestamp,LO_Frequency,Hit,StdDev 
1585306815.7,286046986.9,N
1585306835.5,286046985.0,N
1585306855.4,286046982.6,N
1585306875.2,286046983.2,N
1585306895.0,286046982.9,N
1585306895.9,286046982.9,N
1585306915.8,286046980.7,N
1585306935.6,286046980.5,N
1585306955.5,286046983.6,N
1585306975.3,286046989.4,N
1585306995.1,286046987.7,N
1585307015.9,286046983.0,N
1585307035.7,286046983.1,N
1585307055.5,286046986.2,N
1585307075.4,286046990.3,N
1585307095.2,286046985.5,N
1585307115.1,286046986.2,N
1585307116.0,286046986.2,N
1585307135.8,286046982.3,N
1585307155.6,286046982.9,N
1585307175.5,286046978.1,N
1585307195.3,286046978.8,N
1585307215.1,286046976.9,N
1585307235.9,286046971.5,Y
1585307255.7,286046982.0,P
1585307275.6,286046978.9,P
1585307295.4,286046983.2,P
1585307315.2,286046986.3,Y
1585307335.1,286046999.5,P
1585307336.0,286046999.5,N
1585307355.8,286046993.9,N
1585307375.7,286046998.5,N
1585307395.5,286047007.8,N
1585307415.3,286047011.9,N
1585307435.2,286047006.4,N
1585307455.0,286047002.1,N
1585307455.9,286047002.1,N
1585307475.7,286047004.4,N
1585307495.6,286047003.3,N
1585307515.4,286047000.9,N
1585307535.3,286046995.4,N
1585307555.1,286046992.1,N
1585307556.0,286046992.1,N
1585307575.8,286046988.8,N
1585307595.7,286046989.4,N
1585307615.5,286046986.2,N
1585307635.3,286046984.9,N
1585307655.2,286046980.5,N
1585307675.0,286046979.0,N
1585307675.9,286046979.0,N
1585307695.8,286046987.5,N
1585307715.6,286046991.4,N
1585307735.4,286046989.0,N
1585307755.3,286046983.8,N
1585307775.1,286046980.7,N
1585307795.8,286046982.6,N
1585307815.7,286046985.0,N
1585307835.5,286046981.8,N
1585307855.4,286046981.6,N
1585307875.2,286046977.5,N
1585307895.0,286046980.0,N
1585307895.9,286046980.0,N
1585307915.8,286046979.9,N
1585307935.6,286046981.1,N
1585307955.4,286046985.6,N
1585307975.3,286046986.8,N
1585307995.1,286046982.3,N
1585308015.9,286046978.4,Y
1585308035.7,286046983.8,P
1585308055.5,286046983.8,P
1585308075.4,286046984.3,P
1585308095.2,286046982.9,Y
1585308115.1,286047001.7,P
1585308116.0,286047001.7,N
1585308135.8,286046998.1,N
1585308155.6,286046997.5,N
1585308175.5,286046994.6,N
1585308195.3,286046996.1,N
1585308215.1,286046998.1,N
1585308235.9,286046999.5,N
1585308255.7,286046999.4,N
1585308275.6,286046997.6,N
1585308295.4,286046994.3,N
1585308315.2,286046994.4,N
1585308335.1,286046995.2,N
1585308336.0,286046995.2,N
1585308355.8,286046993.2,N
1585308375.6,286046991.2,N
1585308395.5,286046987.0,Y
1585308415.3,286046992.9,P
1585308435.2,286046994.6,P
1585308455.9,286046990.9,P
1585308475.7,286046990.8,Y
1585308495.6,286046998.2,P
1585308515.4,286046997.4,N
1585308535.3,286046996.2,N
1585308555.1,286046995.7,N
1585308556.0,286046995.7,N
1585308575.8,286046996.4,N
1585308595.7,286046992.9,Y
1585308615.5,286046990.2,P
1585308635.4,286046996.3,N
1585308655.2,286047001.7,N
1585308675.0,286047006.0,N
1585308675.9,286047006.0,N
1585308695.8,286047010.1,N
1585308715.6,286047008.5,N
1585308735.5,286047004.6,N
1585308755.3,286047003.9,N
1585308775.1,286047002.4,N
1585308795.9,286046996.9,N
1585308815.7,286046993.4,N
1585308835.6,286046994.8,N
1585308855.4,286046990.2,N
1585308875.2,286046989.0,N
1585308895.1,286046992.2,N
1585308896.0,286046992.2,N
1585308915.8,286046992.5,N
1585308935.7,286046991.3,N
1585308955.5,286046987.2,N
1585308975.3,286046983.9,N
1585308995.2,286046985.7,N
1585309015.9,286046986.6,N
1585309035.7,286046984.5,N
1585309055.6,286046986.7,N
1585309075.4,286046991.5,N
1585309095.2,286046989.4,N
1585309115.1,286046988.2,N
1585309116.0,286046988.2,N
1585309135.8,286046984.4,N
1585309155.7,286046983.8,N
1585309175.5,286046980.8,N
1585309195.3,286046982.3,N
1585309215.2,286046991.2,N
1585309235.0,286046991.0,N
1585309235.9,286046991.0,N
1585309255.8,286046990.0,N
1585309275.6,286046981.1,Y
1585309295.4,286046989.4,P
1585309315.3,286046986.3,P
1585309335.1,286046983.0,P
1585309355.8,286046986.0,Y
1585309375.7,286046996.8,P
1585309395.5,286047000.5,N
1585309415.4,286047001.4,N
1585309435.2,286047000.1,N
1585309455.0,286047001.3,N
1585309455.9,286047001.3,N
1585309475.8,286047007.6,N
1585309495.6,286047008.3,N
1585309515.4,286047001.7,N
1585309535.3,286046997.2,N
1585309555.1,286046997.6,N
1585309575.9,286046995.9,N
1585309595.7,286046993.0,N
1585309615.5,286046991.5,N
1585309635.4,286046993.8,N
1585309655.2,286046995.2,N
1585309675.0,286046994.1,N
1585309675.9,286046994.1,N
1585309695.8,286046990.7,N
1585309715.6,286046991.0,N
1585309735.5,286046983.9,Y
1585309755.3,286046986.6,P
1585309775.1,286046980.9,P
1585309795.9,286046981.8,N
1585309815.7,286046980.7,N
1585309835.6,286046979.0,Y
1585309855.4,286046996.8,P
1585309875.2,286046999.1,N
1585309895.1,286046992.9,N
1585309896.0,286046992.9,N
1585309915.8,286046990.1,N
1585309935.6,286046990.5,N
1585309955.5,286046993.3,N
1585309975.3,286046992.1,N
1585309995.2,286046993.5,N
1585310015.9,286046996.9,N
1585310035.7,286047002.8,N
1585310055.6,286047002.4,N
1585310075.4,286047001.4,N
1585310095.2,286047001.8,N
1585310115.1,286047001.3,N
1585310116.0,286047001.3,N
1585310135.8,286047000.3,N
1585310155.7,286047002.2,N
1585310175.5,286046999.4,N
1585310195.4,286046995.7,N
1585310215.2,286047002.5,N
1585310235.1,286046997.5,N
1585310236.0,286046997.5,N
1585310255.8,286046991.1,N
1585310275.6,286046986.3,N
1585310295.5,286046982.8,Y
1585310315.3,286046984.5,P
1585310335.1,286046982.9,N
1585310355.9,286046982.3,N
1585310375.7,286046985.2,N
1585310395.6,286046983.2,Y
